User: anonymous   Login
Location: Unspecified
(0.0000°N, 0.0000°E)
Time: 12:27:50
(UTC+02:00)
Language:

Cosmos 2251 - Orbit

View from above orbital plane
View from above orbital plane
View from above satellite
View from above satellite

Ground track
Ground track

The orbit data is extracted from the following two-line orbital elements,

1 22675U 93036A   18113.84586557 -.00000003 +00000-0 +85152-5 0  9995
2 22675 074.0413 009.1386 0024186 051.2369 309.0938 14.32518616298229
Epoch (UTC): 23 April 2018 20:18:02
Eccentricity: 0.0024186
inclination: 74.0413°
perigee height: 766 km
apogee height: 800 km
right ascension of ascending node: 9.1386°
argument of perigee: 51.2369°
revolutions per day: 14.32518616
mean anomaly at epoch: 309.0938°
orbit number at epoch: 29822

The dashed part of the orbit path shows where the satellite is in the earth's shadow,  

DLR